Tracking 23610 objects as of 19-Sep-2021
HD Live streaming from Space Station
objects crossing your sky now

DMSP 5D-2 F13 DEB

Track DMSP 5D-2 F13 DEB now!
10-day predictions


NORAD ID: 40461
Int'l Code: 1995-015BD
Perigee: 731.2 km
Apogee: 802.4 km
Inclination: 98.8 °
Period: 100.0 minutes
Semi major axis: 7137 km
RCS: Unknown
Launch date: March 24, 1995
Source: United States (US)
Launch site: AIR FORCE WESTERN TEST RANGE (AFWTR)

Note: This is SATELLITE DEBRIS
aabbcc
Your satellite tracking list
Your tracking list is empty




NASA's NSSDC Master Catalog

Two Line Element Set (TLE):
1 40461U 95015BD  21260.17140465  .00002452  00000-0  78729-3 0  9993
2 40461  98.8101 341.0550 0049854 169.1190 191.1088 14.39640029341418
Source of the keplerian elements: AFSPC